| time (UTC) | temp F | wind direction | speed MPH | gust MPH | rain 1hr in | rain 24hr in | rain mn in | humidity % | barometer mb |
| 20260903232002 | 74 | 66 | 2.0 | 7.0 | 0.00 | 0.48 | 0.48 | 91 | 1017.1 |
| 20260903231002 | 74 | 335 | 3.0 | 7.0 | 0.00 | 0.48 | 0.48 | 90 | 1017.5 |
| 20260903230004 | 74 | 29 | 3.0 | 9.0 | 0.00 | 0.48 | 0.48 | 90 | 1017.2 |
| 20260903225003 | 75 | 9 | 5.0 | 9.0 | 0.00 | 0.48 | 0.48 | 89 | 1016.9 |
| 20260903221003 | 76 | 5 | 5.0 | 7.0 | 0.00 | 0.48 | 0.48 | 87 | 1016.9 |
| 20260903215003 | 78 | 20 | 3.0 | 5.0 | 0.00 | 0.48 | 0.48 | 85 | 1016.6 |
| 20260903214003 | 79 | 28 | 2.0 | 5.0 | 0.00 | 0.48 | 0.48 | 84 | 1016.3 |
| 20260903213003 | 79 | 10 | 4.0 | 7.0 | 0.00 | 0.48 | 0.48 | 83 | 1016.1 |
| 20260903211003 | 80 | 30 | 2.0 | 8.0 | 0.00 | 0.48 | 0.48 | 83 | 1016.0 |
| 20260903210003 | 78 | 4 | 5.0 | 8.0 | 0.00 | 0.48 | 0.48 | 86 | 1016.4 |
| 20260903205003 | 77 | 359 | 4.0 | 9.0 | 0.00 | 0.48 | 0.48 | 87 | 1016.5 |
| 20260903204003 | 78 | 5 | 3.0 | 9.0 | 0.00 | 0.48 | 0.48 | 87 | 1016.5 |
| 20260903203003 | 79 | 7 | 5.0 | 7.0 | 0.00 | 0.48 | 0.48 | 85 | 1016.8 |
| 20260903202003 | 80 | 9 | 5.0 | 9.0 | 0.00 | 0.48 | 0.48 | 82 | 1016.6 |
| 20260903201003 | 81 | 15 | 3.0 | 7.0 | 0.00 | 0.48 | 0.48 | 78 | 1016.6 |
| 20260903200004 | 79 | 316 | 3.0 | 6.0 | 0.00 | 0.48 | 0.48 | 80 | 1017.1 |
| 20260903195002 | 79 | 101 | 2.0 | 5.0 | 0.00 | 0.48 | 0.48 | 79 | 1017.1 |
| 20260903193003 | 79 | 220 | 3.0 | 8.0 | 0.00 | 0.48 | 0.48 | 81 | 1017.0 |
| 20260903192003 | 80 | 66 | 2.0 | 7.0 | 0.00 | 0.48 | 0.48 | 83 | 1016.9 |
| 20260903191002 | 80 | 204 | 4.0 | 5.0 | 0.00 | 0.48 | 0.48 | 82 | 1017.0 |
| 20260903190002 | 78 | 191 | 2.0 | 7.0 | 0.00 | 0.48 | 0.48 | 85 | 1017.1 |
| 20260903183003 | 76 | 115 | 1.0 | 5.0 | 0.00 | 0.48 | 0.48 | 89 | 1017.1 |
| 20260903182003 | 76 | 71 | 2.0 | 5.0 | 0.00 | 0.48 | 0.48 | 89 | 1017.1 |
| 20260903180003 | 75 | 205 | 2.0 | 3.0 | 0.00 | 0.48 | 0.48 | 91 | 1017.9 |
| 20260903175002 | 73 | 112 | 1.0 | 3.0 | 0.00 | 0.48 | 0.48 | 96 | 1017.6 |
| 20260903174003 | 73 | 73 | 1.0 | 2.0 | 0.00 | 0.48 | 0.48 | 96 | 1018.1 |
| 20260903173003 | 73 | 80 | 1.0 | 6.0 | 0.00 | 0.48 | 0.48 | 97 | 1017.6 |
| 20260903172003 | 72 | 48 | 1.0 | 5.0 | 0.00 | 0.48 | 0.48 | 98 | 1017.0 |
| 20260903171003 | 72 | 10 | 5.0 | 9.0 | 0.00 | 0.48 | 0.48 | 99 | 1017.0 |
| 20260903170004 | 72 | 18 | 1.0 | 5.0 | 0.00 | 0.48 | 0.48 | 99 | 1016.7 |
| 20260903165003 | 71 | 82 | 1.0 | 5.0 | 0.04 | 0.48 | 0.48 | 99 | 1016.4 |
| 20260903164003 | 71 | 86 | 2.0 | 6.0 | 0.22 | 0.48 | 0.48 | 99 | 1016.9 |
| 20260903163003 | 70 | 21 | 2.0 | 8.0 | 0.27 | 0.48 | 0.48 | 99 | 1017.2 |
| 20260903162003 | 70 | 35 | 2.0 | 6.0 | 0.27 | 0.48 | 0.48 | 99 | 1017.4 |
| 20260903161003 | 69 | 37 | 2.0 | 5.0 | 0.31 | 0.48 | 0.48 | 99 | 1017.7 |
| 20260903160002 | 69 | 335 | 1.0 | 5.0 | 0.41 | 0.48 | 0.48 | 99 | 1017.7 |
| 20260903155002 | 68 | 97 | 2.0 | 6.0 | 0.44 | 0.44 | 0.44 | 99 | 1018.2 |
| 20260903154002 | 69 | 135 | 2.0 | 5.0 | 0.25 | 0.25 | 0.25 | 99 | 1018.3 |
| 20260903153003 | 69 | 304 | 3.0 | 6.0 | 0.20 | 0.20 | 0.20 | 99 | 1018.2 |
| 20260903152003 | 69 | 324 | 3.0 | 5.0 | 0.20 | 0.20 | 0.20 | 98 | 1017.3 |
| 20260903151002 | 69 | 89 | 3.0 | 7.0 | 0.17 | 0.17 | 0.17 | 97 | 1017.6 |
| 20260903150003 | 71 | 246 | 1.0 | 3.0 | 0.07 | 0.07 | 0.07 | 94 | 1017.0 |
| 20260903145002 | 72 | 280 | 2.0 | 3.0 | 0.00 | 0.00 | 0.00 | 89 | 1016.9 |
| 20260903144003 | 72 | 85 | 2.0 | 5.0 | 0.00 | 0.00 | 0.00 | 89 | 1016.4 |
| 20260903142003 | 72 | 126 | 1.0 | 2.0 | 0.00 | 0.00 | 0.00 | 86 | 1016.8 |
| 20260903141003 | 73 | 77 | 1.0 | 5.0 | 0.00 | 0.00 | 0.00 | 85 | 1016.8 |
| 20260903140003 | 73 | 99 | 2.0 | 5.0 | 0.00 | 0.00 | 0.00 | 85 | 1016.9 |
| 20260903135003 | 73 | 44 | 2.0 | 3.0 | 0.00 | 0.00 | 0.00 | 85 | 1016.9 |
| 20260903134002 | 73 | 93 | 2.0 | 3.0 | 0.00 | 0.00 | 0.00 | 87 | 1016.5 |
| 20260903133003 | 73 | 93 | 2.0 | 5.0 | 0.00 | 0.00 | 0.00 | 87 | 1016.5 |
| 20260903132003 | 72 | 61 | 1.0 | 5.0 | 0.00 | 0.00 | 0.00 | 88 | 1016.3 |
| 20260903131002 | 72 | 89 | 2.0 | 5.0 | 0.00 | 0.01 | 0.00 | 90 | 1016.1 |
| 20260903130002 | 71 | 84 | 3.0 | 7.0 | 0.00 | 0.02 | 0.00 | 92 | 1016.1 |
| 20260903125003 | 71 | 66 | 2.0 | 7.0 | 0.00 | 0.02 | 0.00 | 95 | 1016.0 |
| 20260903124003 | 70 | 57 | 7.0 | 12.0 | 0.00 | 0.02 | 0.00 | 96 | 1016.4 |
| 20260903122002 | 70 | 129 | 3.0 | 7.0 | 0.00 | 0.02 | 0.00 | 97 | 1016.5 |
| 20260903121003 | 70 | 110 | 2.0 | 6.0 | 0.00 | 0.02 | 0.00 | 97 | 1016.5 |
| 20260903120003 | 70 | 92 | 2.0 | 5.0 | 0.00 | 0.02 | 0.00 | 97 | 1016.1 |
| 20260903115003 | 69 | 94 | 2.0 | 6.0 | 0.00 | 0.02 | 0.00 | 97 | 1016.2 |
| 20260903114003 | 69 | 100 | 2.0 | 5.0 | 0.00 | 0.02 | 0.00 | 97 | 1016.5 |
| 20260903113003 | 69 | 63 | 2.0 | 7.0 | 0.00 | 0.02 | 0.00 | 97 | 1016.4 |
| 20260903112003 | 69 | 86 | 3.0 | 9.0 | 0.00 | 0.02 | 0.00 | 96 | 1016.6 |
| 20260903111002 | 69 | 358 | 3.0 | 5.0 | 0.00 | 0.02 | 0.00 | 96 | 1016.5 |
| 20260903110003 | 69 | 67 | 2.0 | 3.0 | 0.00 | 0.02 | 0.00 | 96 | 1016.4 |
| 20260903105003 | 69 | 20 | 2.0 | 3.0 | 0.00 | 0.02 | 0.00 | 96 | 1016.7 |
| 20260903104002 | 70 | 93 | 3.0 | 5.0 | 0.00 | 0.02 | 0.00 | 96 | 1016.3 |
| 20260903103003 | 70 | 85 | 1.0 | 2.0 | 0.00 | 0.03 | 0.00 | 96 | 1016.3 |
| 20260903102003 | 70 | 92 | 2.0 | 2.0 | 0.00 | 0.06 | 0.00 | 96 | 1016.5 |
| 20260903101003 | 70 | 103 | 1.0 | 2.0 | 0.00 | 0.33 | 0.00 | 96 | 1016.5 |
| 20260903095003 | 70 | 98 | 0.0 | 2.0 | 0.00 | 0.38 | 0.00 | 95 | 1016.3 |
| 20260903094003 | 70 | 56 | 1.0 | 2.0 | 0.00 | 0.39 | 0.00 | 95 | 1016.2 |
| 20260903093003 | 70 | 17 | 1.0 | 5.0 | 0.00 | 0.46 | 0.00 | 95 | 1016.1 |
| 20260903092003 | 70 | 21 | 1.0 | 2.0 | 0.00 | 0.46 | 0.00 | 96 | 1016.1 |
| 20260903091003 | 70 | 259 | 0.0 | 2.0 | 0.00 | 0.46 | 0.00 | 96 | 1016.2 |
| 20260903090003 | 70 | 45 | 2.0 | 2.0 | 0.00 | 0.46 | 0.00 | 97 | 1016.1 |
| 20260903085003 | 69 | 81 | 0.0 | 1.0 | 0.00 | 0.46 | 0.00 | 97 | 1015.8 |
| 20260903084004 | 69 | 24 | 0.0 | 2.0 | 0.00 | 0.46 | 0.00 | 97 | 1015.8 |
| 20260903083003 | 69 | 60 | 1.0 | 1.0 | 0.00 | 0.46 | 0.00 | 98 | 1016.0 |
| 20260903082003 | 69 | 73 | 0.0 | 2.0 | 0.00 | 0.46 | 0.00 | 98 | 1016.2 |
| 20260903081003 | 69 | 141 | 1.0 | 2.0 | 0.00 | 0.46 | 0.00 | 99 | 1016.3 |
| 20260903080003 | 68 | 59 | 0.0 | 2.0 | 0.00 | 0.46 | 0.00 | 98 | 1016.3 |
| 20260903075003 | 68 | 76 | 0.0 | 1.0 | 0.00 | 0.46 | 0.00 | 98 | 1016.1 |
| 20260903074003 | 68 | 125 | 0.0 | 1.0 | 0.00 | 0.46 | 0.00 | 98 | 1016.2 |
| 20260903073003 | 69 | 91 | 1.0 | 2.0 | 0.00 | 0.46 | 0.00 | 98 | 1016.4 |
| 20260903072002 | 69 | 77 | 0.0 | 1.0 | 0.00 | 0.46 | 0.00 | 97 | 1016.3 |
| 20260903071003 | 69 | 102 | 1.0 | 1.0 | 0.00 | 0.46 | 0.00 | 97 | 1016.3 |
| 20260903070002 | 69 | 112 | 0.0 | 2.0 | 0.00 | 0.46 | 0.00 | 96 | 1016.4 |
| 20260903065003 | 70 | 65 | 1.0 | 2.0 | 0.00 | 0.46 | 0.00 | 96 | 1016.5 |
| 20260903064003 | 70 | 85 | 2.0 | 3.0 | 0.00 | 0.46 | 0.00 | 96 | 1016.7 |
| 20260903063002 | 69 | 114 | 2.0 | 2.0 | 0.00 | 0.46 | 0.00 | 97 | 1016.7 |
| 20260903062003 | 69 | 80 | 1.0 | 2.0 | 0.00 | 0.46 | 0.00 | 97 | 1016.8 |
| 20260903061002 | 69 | 152 | 1.0 | 2.0 | 0.00 | 0.46 | 0.00 | 97 | 1016.8 |
| 20260903060003 | 69 | 104 | 1.0 | 1.0 | 0.00 | 0.46 | 0.00 | 97 | 1016.6 |
| 20260903055003 | 69 | 116 | 0.0 | 1.0 | 0.00 | 0.46 | 0.00 | 97 | 1016.5 |
| 20260903053003 | 70 | 125 | 0.0 | 1.0 | 0.00 | 0.46 | 0.00 | 96 | 1016.6 |
| 20260903051004 | 70 | 85 | 1.0 | 2.0 | 0.00 | 0.46 | 0.00 | 95 | 1016.5 |
| 20260903050004 | 70 | 59 | 1.0 | 1.0 | 0.00 | 0.46 | 0.00 | 94 | 1016.6 |
| 20260903045003 | 71 | 68 | 1.0 | 1.0 | 0.00 | 0.46 | 0.46 | 94 | 1016.4 |
| 20260903044004 | 71 | 102 | 1.0 | 2.0 | 0.00 | 0.46 | 0.46 | 93 | 1016.4 |
| 20260903042003 | 71 | 105 | 1.0 | 3.0 | 0.00 | 0.46 | 0.46 | 93 | 1016.4 |
| 20260903041003 | 71 | 85 | 2.0 | 3.0 | 0.00 | 0.46 | 0.46 | 93 | 1016.3 |
| 20260903040002 | 72 | 93 | 1.0 | 3.0 | 0.00 | 0.46 | 0.46 | 92 | 1016.5 |
| 20260903035003 | 72 | 89 | 1.0 | 3.0 | 0.00 | 0.46 | 0.46 | 92 | 1016.6 |
| 20260903034003 | 72 | 85 | 1.0 | 2.0 | 0.00 | 0.46 | 0.46 | 93 | 1016.7 |
| 20260903033003 | 72 | 84 | 1.0 | 2.0 | 0.00 | 0.46 | 0.46 | 93 | 1016.7 |
| 20260903032003 | 73 | 88 | 2.0 | 2.0 | 0.00 | 0.46 | 0.46 | 92 | 1016.9 |
| 20260903031003 | 73 | 70 | 1.0 | 3.0 | 0.00 | 0.46 | 0.46 | 92 | 1016.8 |
| 20260903030003 | 73 | 127 | 1.0 | 2.0 | 0.00 | 0.46 | 0.46 | 92 | 1016.6 |
| 20260903025003 | 73 | 94 | 2.0 | 3.0 | 0.00 | 0.46 | 0.46 | 92 | 1016.6 |
| 20260903023004 | 74 | 84 | 2.0 | 2.0 | 0.00 | 0.46 | 0.46 | 91 | 1016.3 |
| 20260903022003 | 74 | 111 | 1.0 | 2.0 | 0.00 | 0.46 | 0.46 | 91 | 1016.6 |
| 20260903021003 | 75 | 101 | 2.0 | 5.0 | 0.00 | 0.46 | 0.46 | 90 | 1016.3 |
| 20260903020003 | 76 | 105 | 2.0 | 3.0 | 0.00 | 0.46 | 0.46 | 89 | 1016.3 |
| 20260903015003 | 76 | 111 | 2.0 | 2.0 | 0.00 | 0.46 | 0.46 | 88 | 1016.1 |
| 20260903014003 | 76 | 95 | 1.0 | 2.0 | 0.00 | 0.46 | 0.46 | 87 | 1016.1 |
| 20260903013003 | 77 | 91 | 1.0 | 2.0 | 0.00 | 0.46 | 0.46 | 86 | 1016.0 |
| 20260903012003 | 77 | 131 | 1.0 | 1.0 | 0.00 | 0.46 | 0.46 | 85 | 1015.9 |
| 20260903011003 | 78 | 137 | 1.0 | 2.0 | 0.00 | 0.46 | 0.46 | 84 | 1015.8 |
| 20260903010003 | 78 | 130 | 0.0 | 1.0 | 0.00 | 0.46 | 0.46 | 83 | 1015.7 |
| 20260903005003 | 79 | 3 | 0.0 | 1.0 | 0.00 | 0.46 | 0.46 | 81 | 1015.4 |
| 20260903004003 | 80 | 143 | 1.0 | 2.0 | 0.00 | 0.46 | 0.46 | 79 | 1015.2 |
| 20260903003003 | 80 | 127 | 1.0 | 1.0 | 0.00 | 0.46 | 0.46 | 79 | 1015.5 |
| 20260903002003 | 81 | 137 | 0.0 | 2.0 | 0.00 | 0.46 | 0.46 | 76 | 1015.5 |
| 20260903001003 | 81 | 118 | 1.0 | 3.0 | 0.00 | 0.46 | 0.46 | 75 | 1015.5 |
| 20260903000002 | 82 | 152 | 1.0 | 2.0 | 0.00 | 0.46 | 0.46 | 73 | 1015.6 |
| 20260902235002 | 84 | 149 | 1.0 | 2.0 | 0.00 | 0.46 | 0.46 | 70 | 1015.3 |
| 20260902234003 | 84 | 179 | 0.0 | 3.0 | 0.00 | 0.46 | 0.46 | 69 | 1015.5 |